HJ3GNC-11 Weather Reports


time (UTC)temp
C
wind
direction
speed
KPH
gust
KPH
rain 1hr
cm
rain 24hr
cm
rain mn
cm
humidity
%
barometer
mb
20260505002041 12 83 0.0 0.0 0.00 0.00 0.00 83 1016.0
20260505000458 13 83 0.0 0.0 0.00 0.00 0.00 85 1016.0
20260504234918 13 84 0.0 0.0 0.00 0.00 0.00 85 1016.0
20260504233338 13 84 0.0 0.0 0.00 0.00 0.00 83 1016.0
20260504231751 14 94 0.0 0.0 0.00 0.00 0.00 77 1015.0
20260504230207 14 94 0.0 0.0 0.00 0.00 0.00 78 1015.0
20260504224626 14 94 0.0 0.0 0.00 0.00 0.00 80 1015.0
20260504223044 16 94 0.0 0.0 0.00 0.00 0.00 76 1014.0
20260504215918 15 117 0.0 0.0 0.00 0.00 0.00 76 1013.0
20260504214332 16 117 0.0 0.0 0.00 0.00 0.00 73 1013.0
20260504212748 15 119 0.0 0.0 0.00 0.00 0.00 73 1013.0
20260504211204 17 119 0.0 0.0 0.00 0.00 0.00 74 1013.0
20260504205616 16 119 0.0 0.0 0.00 0.00 0.00 74 1013.0
20260504204024 15 119 0.0 0.0 0.00 0.00 0.00 74 1013.0
20260504202438 17 124 0.0 0.0 0.00 0.00 0.00 76 1014.0
20260504200827 16 124 0.0 0.0 0.00 0.00 0.00 76 1014.0
20260504195243 15 124 0.0 0.0 0.00 0.00 0.00 76 1014.0
20260504193701 14 124 0.0 0.0 0.00 0.00 0.00 76 1014.0
20260504190531 17 112 0.0 0.0 0.00 0.00 0.00 73 1014.0
20260504184950 17 112 0.0 0.0 0.00 0.00 0.00 75 1014.0
20260504183406 17 112 0.0 0.0 0.00 0.00 0.00 74 1014.0
20260504181824 18 97 0.0 0.0 0.00 0.00 0.00 71 1014.0
20260504180242 17 97 0.0 0.0 0.00 0.00 0.00 71 1014.0
20260504174659 18 94 0.0 0.0 0.00 0.00 0.00 74 1014.0
20260504173114 17 94 0.0 0.0 0.00 0.00 0.00 74 1014.0
20260504171532 19 98 0.0 0.0 0.00 0.00 0.00 77 1015.0
20260504150640 16 87 0.0 0.0 0.00 0.00 0.00 84 1017.0
20260504100418 11 71 0.0 0.0 0.00 0.00 0.00 98 1018.0
20260504081312 11 77 0.0 0.0 0.00 0.00 0.00 97 1018.0
20260504050139 11 68 0.0 0.0 0.00 0.00 0.00 98 1020.0
20260504044552 11 68 0.0 0.0 0.00 0.00 0.00 97 1020.0
20260504043008 11 68 0.0 0.0 0.00 0.00 0.00 97 1020.0
20260504041424 11 77 0.0 0.0 0.00 0.00 0.00 97 1020.0
20260504034242 10 77 0.0 0.0 0.00 0.00 0.00 97 1020.0
20260504032655 12 81 0.0 0.0 0.00 0.00 0.00 97 1020.0
20260504031109 11 81 0.0 0.0 0.00 0.00 0.00 97 1020.0
20260504025455 12 81 0.0 0.0 0.00 0.00 0.00 97 1020.0
20260504023846 11 81 0.0 0.0 0.00 0.00 0.00 97 1020.0
20260504022244 12 81 0.0 0.0 0.00 0.00 0.00 96 1019.0
20260504020651 12 81 0.0 0.0 0.00 0.00 0.00 96 1019.0
20260504015059 12 81 0.0 0.0 0.00 0.00 0.00 95 1019.0
20260504013449 12 81 0.0 0.0 0.00 0.00 0.00 93 1019.0
20260504010216 13 89 0.0 0.0 0.00 0.00 0.00 91 1018.0